Regional Weather Roundup
Issued by NWS

Home | Current Version | Previous Version | Graphics & Text | Print | Product List | Glossary On
Versions: 1 2 3 4 5 6 7 8 9 10 11 12 13 14 15 16 17 18 19 20 21 22 23 24 25 26 27 28 29 30 31 32 33 34 35 36 37 38 39 40 41 42 43 44 45 46 47 48 49 50
000
ASUS43 KOAX 262302
RWRNE

WEATHER ROUNDUP FOR NEBRASKA
NATIONAL WEATHER SERVICE OMAHA NE
600 PM CDT MON SEP 26 2016

NOTES: SATELLITE DATA IS BEING USED TO AUGMENT CLOUD COVER ABOVE
       12000 FEET.
       "FAIR" INDICATES FEW OR NO CLOUDS BELOW 12,000 FEET WITH NO
       SIGNIFICANT WEATHER AND/OR OBSTRUCTIONS TO VISIBILITY.

  * THESE STATIONS DO NOT REPORT WEATHER SUCH AS RAIN...SNOW OR FOG.

NEZ001>004-019>022-054>056-270000-
NEBRASKA PANHANDLE

CITY           SKY/WX    TMP DP  RH WIND       PRES   REMARKS
SCOTTSBLUFF    SUNNY     76  41  28 N9        30.24F
ALLIANCE       SUNNY     73  41  31 NW14      30.23S
CHADRON        SUNNY     74  40  29 NW14      30.21F
KIMBALL        SUNNY     71  41  33 N12       30.29F
SIDNEY         LGT RAIN  73  39  29 N12       30.27F
$$

NEZ057>060-069>072-079>082-270000-
SOUTHWEST NEBRASKA

CITY           SKY/WX    TMP DP  RH WIND       PRES   REMARKS
NORTH PLATTE   SUNNY     76  40  27 NW8       30.17F
IMPERIAL       SUNNY     77  35  21 NW12      30.21F
LEXINGTON      SUNNY     76  39  26 NW10G16   30.15F
MCCOOK         SUNNY     78  38  23 N13       30.17F
OGALLALA       SUNNY     78  38  24 NW10G17   30.20F
$$

NEZ005>010-023>029-035>040-094-270000-
NORTH CENTRAL NEBRASKA

CITY           SKY/WX    TMP DP  RH WIND       PRES   REMARKS
VALENTINE      SUNNY     74  36  25 NW16G23   30.15F
AINSWORTH      SUNNY     72  41  32 NW10      30.15F
BROKEN BOW     SUNNY     75  38  26 NW9       30.15F
O`NEILL        SUNNY     73  34  24 NW14G20   30.13F
THEDFORD       SUNNY     75  41  28 NW10      30.17F
$$

NEZ041-046>049-061>064-073>077-083>087-270000-
SOUTH CENTRAL NEBRASKA

CITY           SKY/WX    TMP DP  RH WIND       PRES   REMARKS
GRAND ISLAND   SUNNY     77  39  25 NW13      30.12F
AURORA         SUNNY     76  38  25 NW8       30.11F
HASTINGS       SUNNY     77  40  26 N10       30.14F
HEBRON         SUNNY     76  35  22 W7        30.13F
HOLDREGE       SUNNY     76  36  23 W7        30.15F
KEARNEY *      SUNNY     79  37  22 W9        30.13S
YORK           SUNNY     75  37  25 NW8       30.11F
$$

NEZ011>018-030>034-042>045-270000-
NORTHEAST NEBRASKA

CITY           SKY/WX    TMP DP  RH WIND       PRES   REMARKS
NORFOLK        SUNNY     73  38  27 NW13      30.09S
ALBION         SUNNY     73  38  29 NW14      30.11F
BLAIR          SUNNY     75  40  28 W8        30.07F
FREMONT        SUNNY     74  40  29 W10       30.08F
TEKAMAH        SUNNY     75  37  25 W12       30.06F
WAYNE          SUNNY     71  38  29 NW15      30.09S
$$

NEZ050>053-065>068-078-088>093-270000-
SOUTHEAST NEBRASKA

CITY           SKY/WX    TMP DP  RH WIND       PRES   REMARKS
LINCOLN        SUNNY     77  39  25 W7        30.10F
OMAHA EPPLEY   SUNNY     76  39  26 W13       30.07F
BEATRICE       SUNNY     75  40  28 W12       30.12F
FALLS CITY     SUNNY     73  45  36 NW9       30.10F
NEBRASKA CITY  SUNNY     73  23  15 NW10      30.10F
PLATTSMOUTH    SUNNY     74  30  20 W12G17    30.09F
$$

NEZ044-045-051>053-067-270000-
OMAHA AREA

CITY           SKY/WX    TMP DP  RH WIND       PRES   REMARKS
OMAHA EPPLEY   SUNNY     76  39  26 W13       30.07F
BLAIR          SUNNY     75  40  28 W8        30.07F
FREMONT        SUNNY     74  40  29 W10       30.08F
MILLARD        SUNNY     74  41  29 W7        30.07F
OFFUTT AFB     SUNNY     74  41  30 W8        30.07F
PLATTSMOUTH    SUNNY     74  30  20 W12G17    30.09F
WAHOO          FAIR      76  37  25 W6        30.08F
$$




USA.gov is the U.S. government's official web portal to all federal, state and local government web resources and services.